• MPC Preparation (Info)

  • MPEC 2000-U35 : 2000 UW13

    The following Minor Planet Electronic Circular may be linked-to from your own Web pages, but must not otherwise be redistributed electronically.

    A form allowing access to any MPEC is at the bottom of this page.


    Read MPEC 2000-U34 Read MPEC 2000-U36


    M.P.E.C. 2000-U35                                Issued 2000 Oct. 29, 19:18 UT
    
         The Minor Planet Electronic Circulars contain information on unusual
             minor planets and routine data on comets.  They are published
       on behalf of Commission 20 of the International Astronomical Union by the
              Minor Planet Center, Smithsonian Astrophysical Observatory,
                              Cambridge, MA 02138, U.S.A.
    
                 Prepared using the Tamkin Foundation Computer Network
    
                                  MPC@CFA.HARVARD.EDU
              URL http://cfa-www.harvard.edu/iau/mpc.html  ISSN 1523-6714
    
                                       2000 UW13
    
    Observations:
         K00U13W* C2000 10 27.22051 00 27 37.81 -11 47 36.4          18.0        704
         K00U13W  C2000 10 27.23455 00 27 31.89 -11 45 41.7          18.2        704
         K00U13W  C2000 10 27.24952 00 27 25.57 -11 43 41.2          18.8        704
         K00U13W  C2000 10 27.26368 00 27 19.72 -11 41 46.4          19.3        704
         K00U13W  C2000 10 27.27843 00 27 13.42 -11 39 45.5          18.7        704
         K00U13W  C2000 10 28.32981 00 20 17.57 -09 15 24.7          17.1 R      467
         K00U13W  C2000 10 28.33442 00 20 15.76 -09 14 47.8          17.4 R      467
         K00U13W  C2000 10 28.33520 00 20 15.43 -09 14 41.0          17.5 R      467
         K00U13W  C2000 10 28.34518 00 20 11.35 -09 13 17.9          17.4 R      467
         K00U13W  C2000 10 28.34825 00 20 10.11 -09 12 53.8          17.4 R      467
         K00U13W  C2000 10 28.74681 00 17 34.08 -08 19 15.0          17.1 R      046
         K00U13W  C2000 10 28.74792 00 17 33.66 -08 19 03.8                      046
         K00U13W  C2000 10 28.74862 00 17 33.36 -08 18 58.8                      046
         K00U13W  C2000 10 28.75178 00 17 32.10 -08 18 33.6                      046
         K00U13W  C2000 10 28.86887 00 16 44.74 -08 02 29.4                      557
         K00U13W  C2000 10 28.86959 00 16 44.52 -08 02 22.7                      557
         K00U13W  C2000 10 28.87030 00 16 44.18 -08 02 16.9                      557
         K00U13W  C2000 10 28.87245 00 16 43.36 -08 01 59.2          18.7 V      557
         K00U13W IC2000 10 29.20620 00 14 33.66 -07 15 49.1                      711
         K00U13W  C2000 10 29.20930 00 14 32.45 -07 15 23.5                      711
         K00U13W  C2000 10 29.82233 00 10 38.33 -05 50 41.7                      611
         K00U13W  C2000 10 29.82336 00 10 37.96 -05 50 31.4                      611
         K00U13W  C2000 10 29.82509 00 10 37.17 -05 50 18.8                      611
    
    Observer details:
    046 Klet.  Observers J. Ticha, M. Tichy.  0.57-m f/5.2 reflector + CCD.
    467 Auckland Observatory.  Observers I. P. Griffin.  0.35-m Schmidt-Cassegrain
        + CCD.
    557 Ondrejov.  Observer P. Kusnirak.  0.65-m f/3.6 reflector + CCD.
    611 Starkenburg.  Observer M. Busch.  0.45-m f/4.4 reflector + CCD.
    704 Lincoln Laboratory ETS, New Mexico.  Observers M. Blythe, F. Shelly,
        M. Bezpalko, M. Elowitz, R. Huber, L. Manguso.  Measurers J. Stuart,
        R. Sayer, J. B. Evans, H. Viggh.  1.0-m f/2.15 reflector + CCD.
    711 McDonald Observatory.  Observers P. J. Shelus, P. J. Shelus III.  0.76-m
        reflector + CCD.
    
    Orbital elements:
    2000 UW13
    Epoch 2000 Oct. 23.0 TT = JDT 2451840.5                 Spahr
    M 324.17331              (2000.0)            P               Q
    n   0.68190584     Peri.   39.37934     +0.32936393     -0.91100156
    a   1.2783598      Node    33.63609     +0.71302028     +0.06766449
    e   0.1468151      Incl.   26.61892     +0.61896807     +0.40681405
    P   1.45           H   20.6           G   0.15
    From 23 observations 2000 Oct. 27-29.
    
    Ephemeris:
    2000 UW13                a,e,i = 1.28, 0.15, 27                  q = 1.0907
    Date    TT    R. A. (2000) Decl.     Delta      r     Elong.  Phase     V
    2000 10 23    00 56.70   -20 44.9    0.169    1.138   145.1    30.0    18.3
    2000 11 02    23 51.35   +01 25.3    0.166    1.122   138.7    35.7    18.4
    2000 11 12    23 03.82   +20 33.1    0.200    1.109   122.2    49.0    19.2
    2000 11 22    22 34.97   +32 41.4    0.255    1.100   109.6    57.8    19.9
    2000 12 02    22 19.88   +40 26.7    0.316    1.094   101.5    62.1    20.5
    2000 12 12    22 14.09   +46 03.5    0.376    1.091    96.2    63.8    20.9
    2000 12 22    22 14.91   +50 38.7    0.431    1.092    92.6    64.2    21.2
    2001 01 01    22 21.33   +54 47.4    0.479    1.096    90.3    63.8    21.5
    2001 01 11    22 33.20   +58 49.4    0.519    1.104    89.0    62.9    21.6
    2001 01 21    22 51.66   +62 54.8    0.551    1.115    88.5    61.9    21.7
    2001 01 31    23 19.89   +67 08.4    0.575    1.129    88.7    60.7    21.8
    2001 02 10    00 04.5    +71 24.6    0.592    1.146    89.5    59.4    21.9
    2001 02 20    01 19.4    +75 11.2    0.604    1.165    90.6    58.1    21.9
    
    Timothy B. Spahr             (C) Copyright 2000 MPC           M.P.E.C. 2000-U35
    

    Read MPEC 2000-U34 Read MPEC 2000-U36


    MPEC number:

    Enter an MPEC number in one of the following forms:

    • 1997-B01 (the full form)
    • J97B01 (the packed version of the full form)
    • B01 (the abbreviated form)